OSCAR 10

导读

**OSCAR 10(AO-10)**是德国业余卫星组织(AMSAT)研制的星形微型卫星,于1983年6月16日在法属圭亚那库鲁航天中心由阿里安1号火箭发射升空。入轨后它通过自带助推器调整至莫尼亚轨道,旨在为全球业余无线电爱好者提供卫星通信服务,是业余航天通信领域的重要里程碑,推动了跨国业余无线电交流。

基本信息
目录编号:
14129
目录名称:
OSCAR 10
国际标识:
1983-058B
轨道中心:
EARTH
卫星名称:
OSCAR 10
卫星全名:
--
卫星状态:
在轨 (已飞行15734 天)
发射日期:
1983-06-16 UTC
国别 :
德国 (DE)
星等 :
--
轨道信息
数据来源 国际轨道数据
星历时间: 2026-07-13T10:29:47+0800
1天前
查看轨道信息
半长轴: 26101.767km
偏心率: 0.6002223
轨道倾角: 25.934°
近地点辐角 122.789°
升交点赤经 215.293°
平近点角 309.297°
近地点: 4056.767km
远地点: 35390.493km
周期: 699.463分钟
每日圈数: 2.058723
详细信息
使用方式:
暂无
2D轨道图
3D轨道图
轨道高度分析图
轨道倾角分析图
轨道综合分析图
查看轨道综合分析图